Time,TemperatureF,DewpointF,PressureIn,WindDirection,WindDirectionDegrees,WindSpeedMPH,WindSpeedGustMPH,Humidity,HourlyPrecipIn,Conditions,Clouds,dailyrainin,SoftwareType,DateUTC
2013-01-22 00:00:00,5.4,-2.3,29.83,NE,35,1.0,1.0,70,0.00,,,0.00,Wunderground v.1.13,2013-01-22 05:00:00,
2013-01-22 00:30:00,5.6,-1.8,29.82,NE,35,1.0,1.0,71,0.00,,,0.00,Wunderground v.1.13,2013-01-22 05:30:00,
2013-01-22 01:00:00,5.2,-1.9,29.80,NE,35,1.0,5.0,72,0.00,,,0.00,Wunderground v.1.13,2013-01-22 06:00:00,
2013-01-22 01:30:00,4.8,-2.0,29.80,NE,35,0.0,5.0,73,0.00,,,0.00,Wunderground v.1.13,2013-01-22 06:30:00,
2013-01-22 02:00:00,5.0,-2.1,29.80,NE,36,0.0,5.0,72,0.00,,,0.00,Wunderground v.1.13,2013-01-22 07:00:00,
2013-01-22 02:30:00,5.2,-1.9,29.80,NE,36,0.0,5.0,72,0.00,,,0.00,Wunderground v.1.13,2013-01-22 07:30:00,
2013-01-22 03:00:00,5.6,-1.8,29.81,NE,36,0.0,5.0,71,0.00,,,0.00,Wunderground v.1.13,2013-01-22 08:00:00,
2013-01-22 03:30:00,5.2,-1.6,29.81,NE,36,1.0,1.0,73,0.00,,,0.00,Wunderground v.1.13,2013-01-22 08:30:00,
2013-01-22 04:00:00,5.2,-0.7,29.81,NNE,33,2.0,5.0,76,0.00,,,0.00,Wunderground v.1.13,2013-01-22 09:00:00,
2013-01-22 04:30:00,2.6,-3.2,29.81,NNE,26,2.0,5.0,76,0.00,,,0.00,Wunderground v.1.13,2013-01-22 09:30:00,
2013-01-22 05:00:00,1.1,-4.7,29.83,NNE,26,0.0,5.0,76,0.00,,,0.00,Wunderground v.1.13,2013-01-22 10:00:00,
2013-01-22 05:30:00,0.5,-5.6,29.84,NNE,26,0.0,5.0,75,0.00,,,0.00,Wunderground v.1.13,2013-01-22 10:30:00,
2013-01-22 06:00:00,0.7,-5.4,29.85,NNE,26,0.0,5.0,75,0.00,,,0.00,Wunderground v.1.13,2013-01-22 11:00:00,
2013-01-22 06:30:00,1.1,-5.0,29.86,NNE,26,1.0,1.0,75,0.00,,,0.00,Wunderground v.1.13,2013-01-22 11:30:00,
2013-01-22 07:00:00,1.5,-4.6,29.87,NNE,26,1.0,5.0,75,0.00,,,0.00,Wunderground v.1.13,2013-01-22 12:00:00,
2013-01-22 07:30:00,1.7,-4.1,29.88,NNE,26,0.0,5.0,76,0.00,,,0.00,Wunderground v.1.13,2013-01-22 12:30:00,
2013-01-22 08:00:00,2.0,-3.8,29.88,NNE,26,0.0,5.0,76,0.00,,,0.00,Wunderground v.1.13,2013-01-22 13:00:00,
2013-01-22 08:30:00,2.4,-3.4,29.88,NNE,26,0.0,5.0,76,0.00,,,0.00,Wunderground v.1.13,2013-01-22 13:30:00,
2013-01-22 09:00:00,2.8,-3.1,29.89,NNE,26,1.0,1.0,76,0.00,,,0.00,Wunderground v.1.13,2013-01-22 14:00:00,
2013-01-22 09:30:00,3.7,-1.9,29.89,NNE,26,0.0,5.0,77,0.00,,,0.00,Wunderground v.1.13,2013-01-22 14:30:00,
2013-01-22 10:00:00,5.0,-1.8,29.90,NNE,26,0.0,5.0,73,0.00,,,0.00,Wunderground v.1.13,2013-01-22 15:00:00,
2013-01-22 10:30:00,6.1,-1.0,29.91,NNE,26,0.0,5.0,72,0.00,,,0.00,Wunderground v.1.13,2013-01-22 15:30:00,
2013-01-22 11:00:00,8.4,0.9,29.92,North,11,1.0,5.0,71,0.00,,,0.00,Wunderground v.1.13,2013-01-22 16:00:00,
2013-01-22 11:30:00,7.9,0.7,29.93,WNW,293,2.0,5.0,72,0.00,,,0.00,Wunderground v.1.13,2013-01-22 16:30:00,
2013-01-22 12:00:00,7.2,-1.2,29.92,WNW,288,3.0,3.0,68,0.00,,,0.00,Wunderground v.1.13,2013-01-22 17:00:00,
2013-01-22 15:30:00,5.2,-9.8,30.01,West,270,3.0,15.0,49,0.00,,,0.00,Wunderground v.1.13,2013-01-22 20:30:00,
2013-01-22 16:00:00,4.5,-11.8,30.03,WNW,293,3.0,13.0,46,0.00,,,0.00,Wunderground v.1.13,2013-01-22 21:00:00,
2013-01-22 16:30:00,4.3,-11.5,30.03,West,270,3.0,12.0,47,0.00,,,0.00,Wunderground v.1.13,2013-01-22 21:30:00,
2013-01-22 17:00:00,4.1,-12.1,30.04,NW,315,3.0,12.0,46,0.00,,,0.00,Wunderground v.1.13,2013-01-22 22:00:00,
2013-01-22 17:30:00,3.9,-12.8,30.05,WNW,293,2.0,12.0,45,0.00,,,0.00,Wunderground v.1.13,2013-01-22 22:30:00,
2013-01-22 18:00:00,3.7,-11.6,30.05,NW,315,1.0,10.0,48,0.00,,,0.00,Wunderground v.1.13,2013-01-22 23:00:00,
2013-01-22 18:30:00,3.0,-11.1,30.06,NW,315,2.0,9.0,51,0.00,,,0.00,Wunderground v.1.13,2013-01-22 23:30:00,
2013-01-22 19:00:00,2.6,-10.7,30.06,NW,315,0.0,4.0,53,0.00,,,0.00,Wunderground v.1.13,2013-01-23 00:00:00,
2013-01-22 19:30:00,2.4,-10.1,30.07,NNW,338,2.0,9.0,55,0.00,,,0.00,Wunderground v.1.13,2013-01-23 00:30:00,
2013-01-22 20:00:00,1.8,-8.9,30.08,NW,315,3.0,11.0,60,0.00,,,0.00,Wunderground v.1.13,2013-01-23 01:00:00,
2013-01-22 20:30:00,1.1,-9.2,30.09,NW,315,4.0,15.0,61,0.00,,,0.00,Wunderground v.1.13,2013-01-23 01:30:00,
2013-01-22 21:00:00,0.3,-9.7,30.09,NNW,338,4.0,14.0,62,0.00,,,0.00,Wunderground v.1.13,2013-01-23 02:00:00,
2013-01-22 21:30:00,-0.6,-12.2,30.10,NW,315,5.0,15.0,57,0.00,,,0.00,Wunderground v.1.13,2013-01-23 02:30:00,
2013-01-22 22:00:00,-1.4,-12.3,30.12,NW,315,4.0,14.0,59,0.00,,,0.00,Wunderground v.1.13,2013-01-23 03:00:00,
2013-01-22 22:30:00,-2.2,-12.7,30.14,NW,315,4.0,15.0,60,0.00,,,0.00,Wunderground v.1.13,2013-01-23 03:30:00,
2013-01-22 23:00:00,-3.1,-14.2,30.14,NW,315,4.0,14.0,58,0.00,,,0.00,Wunderground v.1.13,2013-01-23 04:00:00,
2013-01-22 23:30:00,-4.3,-15.0,30.14,NNW,338,5.0,16.0,59,0.00,,,0.00,Wunderground v.1.13,2013-01-23 04:30:00,